Harrison, AR

10:23 AM CST on December 08, 2016 (GMT -0600)
Boone County

Weather History for KHRO - December, 2011

Change the Weather History Date:

Friday, December 30, 2011

  Actual Average Record
Temperature  
Mean Temperature 54 °F 36 °F  
Max Temperature 60 °F 46 °F 75 °F (1951)
Min Temperature 47 °F 26 °F -5 °F (1983)
Degree Days  
Heating Degree Days 11 29  
Month to date heating degree days 701 806  
Since 1 July heating degree days 1397 1570  
Cooling Degree Days 0 0  
Month to date cooling degree days 0 0  
Year to date cooling degree days 1863 1416  
Growing Degree Days 3 (Base 50)    
Moisture  
Dew Point 28 °F    
Average Humidity 44    
Maximum Humidity 65    
Minimum Humidity 22    
Precipitation  
Precipitation 0.00 in 0.09 in 1.40 in (1932)
Month to date precipitation 3.74 3.11  
Year to date precipitation 52.01 44.05  
Snow  
Snow 0.00 in 0.10 in 7.00 in (1969)
Month to date snowfall 0.9 1.2  
Since 1 July snowfall 0.9 1.7  
Snow Depth 0.00 in    
Sea Level Pressure  
Sea Level Pressure 29.86 in    
Wind  
Wind Speed 13 mph (West)    
Max Wind Speed 25 mph    
Max Gust Speed 40 mph    
Visibility 10 miles    
Events      
T = Trace of Precipitation, MM = Missing Value Source: NWS Daily Summary

Daily Weather History Graph

Daily Weather History Graph

Search for Another Location

Airport or City:

Trip Planner

Search our weather history database for the weather conditions in past years. The results will help you decide how hot, cold, wet, or windy it might be!

Date:

Astronomy

Dec. 30, 2011 Rise Set
Actual Time 7:23 AM CST 5:06 PM CST
Civil Twilight 6:54 AM CST 5:35 PM CST
Nautical Twilight 6:22 AM CST 6:07 PM CST
Astronomical Twilight 5:51 AM CST 6:38 PM CST
Moon 10:54 AM CST (12/30) 11:30 PM CST (12/30)
Length of Visible Light 10h 40m
Length of Day
9h 43m
Waxing Crescent, 36% of the Moon is Illuminated
Dec 30
Waxing Crescent
Jan 1
First Quarter
Jan 9
Full
Jan 16
Last Quarter
Jan 23
New

Hourly Weather History & Observations

Time (CST) Temp. Dew Point Humidity Pressure Visibility Wind Dir Wind Speed Gust Speed Precip Events Conditions
12:53 AM 52.0 °F 39.0 °F 61% 29.72 in 10.0 mi South 6.9 mph - N/A   Clear
1:53 AM 55.0 °F 35.1 °F 47% 29.71 in 10.0 mi SW 17.3 mph 25.3 mph N/A   Clear
2:53 AM 55.9 °F 35.1 °F 45% 29.71 in 10.0 mi SW 16.1 mph 24.2 mph N/A   Clear
3:53 AM 55.9 °F 36.0 °F 47% 29.72 in 10.0 mi WSW 19.6 mph 31.1 mph N/A   Clear
4:53 AM 52.0 °F 37.9 °F 59% 29.77 in 10.0 mi West 17.3 mph 28.8 mph N/A   Clear
5:53 AM 50.0 °F 37.0 °F 61% 29.81 in 10.0 mi WNW 16.1 mph 28.8 mph N/A   Clear
6:53 AM 48.0 °F 36.0 °F 63% 29.83 in 10.0 mi WNW 11.5 mph 19.6 mph N/A   Clear
7:53 AM 46.9 °F 36.0 °F 66% 29.83 in 10.0 mi West 12.7 mph - N/A   Clear
8:53 AM 48.9 °F 36.0 °F 61% 29.84 in 10.0 mi West 10.4 mph 18.4 mph N/A   Clear
9:53 AM 48.9 °F 34.0 °F 56% 29.86 in 10.0 mi West 13.8 mph 23.0 mph N/A   Clear
10:53 AM 54.0 °F 32.0 °F 43% 29.88 in 10.0 mi West 15.0 mph 23.0 mph N/A   Clear
11:53 AM 57.9 °F 27.0 °F 31% 29.86 in 10.0 mi West 18.4 mph 27.6 mph N/A   Clear
12:53 PM 60.1 °F 24.1 °F 25% 29.85 in 10.0 mi WNW 18.4 mph 33.4 mph N/A   Clear
1:53 PM 60.1 °F 21.9 °F 23% 29.85 in 10.0 mi West 17.3 mph 29.9 mph N/A   Clear
2:53 PM 59.0 °F 21.0 °F 23% 29.86 in 10.0 mi West 19.6 mph 28.8 mph N/A   Clear
3:53 PM 57.9 °F 19.0 °F 22% 29.88 in 10.0 mi West 16.1 mph 24.2 mph N/A   Clear
4:53 PM 55.0 °F 19.9 °F 25% 29.91 in 10.0 mi West 10.4 mph 17.3 mph N/A   Clear
5:53 PM 53.1 °F 19.9 °F 27% 29.93 in 10.0 mi West 9.2 mph - N/A   Clear
6:53 PM 51.1 °F 19.9 °F 29% 29.94 in 10.0 mi West 6.9 mph - N/A   Clear
7:53 PM 50.0 °F 21.0 °F 32% 29.96 in 10.0 mi West 5.8 mph - N/A   Clear
8:53 PM 48.9 °F 21.0 °F 33% 29.97 in 10.0 mi West 5.8 mph - N/A   Clear
9:53 PM 50.0 °F 19.9 °F 31% 29.98 in 10.0 mi West 5.8 mph - N/A   Clear
10:53 PM 48.0 °F 21.0 °F 34% 29.99 in 10.0 mi West 5.8 mph - N/A   Clear
11:53 PM 48.0 °F 21.0 °F 34% 29.99 in 10.0 mi West 3.5 mph - N/A   Clear